Back to catalog

SL-12 DEB

LostHEO
NORAD 41685·DEBRIS·🇷🇺 Russia

Launched Oct 26, 2007 from Baikonur Cosmodrome

Loading…

Next Passes (next 24 hours)

TLE

StaleSource: Space-Track

Epoch: Apr 29, 2017, 20:23 UTC

1 41685U 07052S   17119.84992220  .00139778  00000-0  15508+0 0  9996
2 41685  65.5856  48.6697 5740693  25.1740 354.2496  4.30467895 41457

Track SL-12 DEB in real time with AllMySat

Download on the App Store